Orbital Elements at Epoch 2459000.5 (2020-May-31.0) TDB
Reference: JPL 46 (heliocentric ecliptic J2000)
Element | Value | Uncertainty (1-sigma) | Units |
e | .3103961629118041 | 7.3744e-08 | |
a | 1.874904566186459 | 3.6567e-09 | au |
q | 1.292941383016362 | 1.3718e-07 | au |
i | 16.83771304782514 | 9.5609e-06 | deg |
node | 343.3265973667183 | 2.0412e-05 | deg |
peri | 72.57153234259287 | 4.534e-05 | deg |
M | 210.8420956574463 | 2.1554e-05 | deg |
tp | 2459389.017825335261 (2021-Jun-23.51782534) | 5.5669e-05 | TDB |
period | 937.7070409857662 2.57 | 2.7433e-06 7.511e-09 | d yr |
n | .383915214736523 | 1.1231e-09 | deg/d |
Q | 2.456867749356557 | 4.7917e-09 | au |
|
| | Orbit Determination Parameters
Additional Information
|